Location: Waco, TX
(31.5480°N, 97.1670°W)
Time: 22:40:11
(UTC-06:00)

ISS - Pass Details

Date: 18 February 2019
Orbit: 403 x 411 km, 51.6° (Epoch: 22 February)

Event Time Altitude Azimuth Distance (km) Brightness Sun altitude
Rises 16:25:36 0° 305° (NW) 2,324 0.4 21.5°
Reaches altitude 10° 16:27:48 10° 294° (WNW) 1,463 -0.4 21.1°
Maximum altitude 16:30:45 31° 230° (SW) 738 -0.5 20.5°
Drops below altitude 10° 16:33:42 10° 166° (SSE) 1,459 -0.8 19.9°
Sets 16:35:54 0° 156° (SSE) 2,317 0.1 19.5°
